Location: Overspoor
(51.4747°N, 5.6641°E)
Time: 05:44:32
(UTC+02:00)

KKS-1 - Pass Details

Date: 05 July 2022
Orbit: 634 x 649 km, 98.2° (Epoch: 13 August)

Event Time Altitude Azimuth Distance (km) Brightness Sun altitude
Rises 00:54:51 0° 6° (N) 2,979 ? -15.0°
Reaches altitude 10° 00:57:19 10° 355° (N) 2,063 ? -15.1°
Maximum altitude 01:01:06 28° 298° (WNW) 1,232 ? -15.2°
Drops below altitude 10° 01:04:52 10° 240° (WSW) 2,044 ? -15.3°
Enters shadow 01:06:14 - 232° (SW) 2,542 ? -15.3°
